Regional Weather Roundup
Issued by NWS New Orleans/Baton Rouge, LA

Home | Current Version | Previous Version | Graphics & Text | Print | Product List | Glossary On
Versions: 1 2 3 4 5 6 7 8 9 10 11 12 13 14 15 16 17 18 19 20 21 22 23 24 25 26 27 28 29 30 31 32 33 34 35 36 37 38 39 40 41 42 43 44 45 46 47 48 49 50
574
ASUS44 KLIX 230310
RWRLIX
NEW ORLEANS REGIONAL WEATHER ROUNDUP
NATIONAL WEATHER SERVICE NEW ORLEANS LA
1000 PM CDT MON SEP 22 2014

NOTE: "FAIR" INDICATES FEW OR NO CLOUDS BELOW 12,000 FEET WITH NO
      SIGNIFICANT WEATHER AND/OR OBSTRUCTIONS TO VISIBILITY.
      SKY/WX - SKY CONDITION AND SIGNIFICANT WEATHER.
      TMP - AIR TEMPERATURE.     DP    - DEWPOINT TEMPERATURE.
      RH  - RELATIVE HUMIDITY.   PRES  - PRESSURE.
      HI  - HEAT INDEX.          WCI   - WIND CHILL INDEX.

*  THESE STATIONS ARE NOT NWS OR FAA STATIONS AND ARE NOT UNDER
   NWS QUALITY CONTROL.

LAZ038-040-048-061>063-065>067-069-230400-
SOUTHEAST LOUISIANA

CITY           SKY/WX    TMP DP  RH WIND       PRES   REMARKS
N.O. AUDUBON     N/A     82  58  44 MISG        N/A
N.O. INTL ARPT CLEAR     80  56  43 NE22G29   30.04R
N.O. LAKEFRONT CLEAR     80  61  52 NE25      30.04S
N.O. DOWNTOWN*   N/A     81  55  41 N10G17    30.04S
SLIDELL        CLEAR     67  58  72 N6        30.05R
BATON ROUGE    CLEAR     69  57  65 VRB3      30.07R
BOOTHVILLE     PTCLDY    83  66  56 NE14G24   30.02R
BELLE CHASSE   PTCLDY    77  56  48 NE8       30.03R
BOGALUSA*        N/A     63  58  83 CALM      30.09R
GALLIANO*      NOT AVBL
NEW ROADS*       N/A     67  58  72 N6        30.08R
GONZALES*        N/A     73  61  67 N3        30.05S
HAMMOND*       CLEAR     68  57  68 N3        30.08S
HOUMA*         CLEAR     74  49  41 N8        30.03R
PORT FOURCHON* MOCLDY    82  68  61 NE21      30.04S

$$

MSZ070-080>082-230400-
SOUTHERN MISSISSIPPI

CITY           SKY/WX    TMP DP  RH WIND       PRES   REMARKS
MCCOMB         CLEAR     70  54  56 N5        30.10R
GULFPORT       CLEAR     72  55  55 N6        30.04R
BILOXI         CLEAR     73  57  57 N7        30.05R
PASCAGOULA     CLEAR     66  60  81 N3        30.04R

$$

COASTAL OBSERVATIONS
LAKE AND NEARSHORE STATIONS

STATION/POSITION TIME  TEMP    WIND        PRES    WAVE
                       AIR SEA DIR/SP/G            HT/PER
                 (UTC) (F)     (DEG/KT/KT) (MB)    (FT/S)
PASCAGOULA       0300   75      20/  7/  9 1016.7
WAVELAND YACHT   0300   76      10/ 14/ 15 1016.8
GRAND ISLE       0300   81 84   60/ 12/ 17 1016.8
SOUTHWEST PASS   0300   83 89   50/ 21/ 24 1016.5
NEW CANAL        0300   81 82   30/ 22/ 26 1017.3
SHELL BEACH      0300   81 79   20/ 22/ 25 1016.8

OFFSHORE STATIONS

STATION/POSITION TIME  TEMP    WIND        PRES    WAVE
                       AIR SEA DIR/SP/G            HT/PER
                 (UTC) (F)     (DEG/KT/KT) (MB)    (FT/S)
64 S DAUPHIN ISL 0246   81 84   50/ 16/ 17 1016.2    2/ 5

$$




USA.gov is the U.S. government's official web portal to all federal, state and local government web resources and services.